This is the latest recevied weather packets stored in our database for station/object IZ1UQG-N2. If no packets are shown the sender has not sent any weather packets the latest 10 day(s).
| Time | Temp. | Humidity | Pressure | Rain* | Wind** | Luminosity | Snow |
|---|---|---|---|---|---|---|---|
| 1787808903 | 22.22° C | 84% | 1015.6 hPa | 0 mm | - | 33 W/m² | - |
| 1787808843 | 22.22° C | 84% | 1015.5 hPa | 0 mm | - | 23 W/m² | - |
| 1787808783 | 22.22° C | 84% | 1015.7 hPa | 0 mm | - | 19 W/m² | - |
| 1787808723 | 22.22° C | 84% | 1015.7 hPa | 0 mm | - | 16 W/m² | - |
| 1787808663 | 22.22° C | 84% | 1015.8 hPa | 0 mm | - | 14 W/m² | - |
| 1787808603 | 22.22° C | 84% | 1015.7 hPa | 0 mm | - | 12 W/m² | - |
| 1787808542 | 22.22° C | 84% | 1015.7 hPa | 0 mm | - | 12 W/m² | - |
| 1787808482 | 22.22° C | 84% | 1015.6 hPa | 0 mm | - | 11 W/m² | - |
| 1787808422 | 22.22° C | 84% | 1015.6 hPa | 0 mm | - | 9 W/m² | - |
| 1787808362 | 22.22° C | 84% | 1015.7 hPa | 0 mm | - | 9 W/m² | - |
| 1787808303 | 22.22° C | 84% | 1015.7 hPa | 0 mm | - | 9 W/m² | - |
| 1787808242 | 22.22° C | 84% | 1015.7 hPa | 0 mm | - | 9 W/m² | - |
| 1787808181 | 22.22° C | 84% | 1015.7 hPa | 0 mm | - | 9 W/m² | - |
| 1787808123 | 22.22° C | 84% | 1015.7 hPa | 0 mm | - | 7 W/m² | - |
| 1787808063 | 22.22° C | 84% | 1015.7 hPa | 0 mm | - | 9 W/m² | - |
| 1787808003 | 22.22° C | 84% | 1015.7 hPa | 0 mm | - | 9 W/m² | - |
| 1787807943 | 22.22° C | 84% | 1015.7 hPa | 0 mm | - | 9 W/m² | - |
| 1787807883 | 22.22° C | 84% | 1015.8 hPa | 0 mm | - | 9 W/m² | - |
| 1787807823 | 22.22° C | 84% | 1015.7 hPa | 0 mm | - | 9 W/m² | - |
| 1787807763 | 22.22° C | 84% | 1015.7 hPa | 0 mm | - | 9 W/m² | - |
| 1787807702 | 22.22° C | 85% | 1015.7 hPa | 0 mm | - | 9 W/m² | - |
| 1787807642 | 22.22° C | 85% | 1015.6 hPa | 0 mm | - | 9 W/m² | - |
| 1787807582 | 22.22° C | 84% | 1015.6 hPa | 0 mm | - | 9 W/m² | - |
| 1787807522 | 22.22° C | 84% | 1015.7 hPa | 0 mm | - | 9 W/m² | - |
| 1787807462 | 22.22° C | 84% | 1015.6 hPa | 0 mm | - | 9 W/m² | - |
* Rain latest hour (hover to see other rain measurements)
** Current wind speed in m/s (hover to see current wind gust speed)